Terminal Aerodrome Forecast
Issued by NWS Atlanta, GA

Home | Current Version | Previous Version | Text Only | Print | Product List | Glossary On
Versions: 1 2 3 4 5 6 7 8 9 10 11 12 13 14 15 16 17 18 19 20 21 22 23 24 25 26 27 28 29 30 31 32 33 34 35 36 37 38 39 40 41 42 43 44 45
000
FTUS42 KFFC 020900 AAB
TAFATL
TAF AMD
KATL 020957Z 0210/0312 VRB03KT P6SM FEW150
     FM021400 24004KT P6SM SCT035 SCT150
     FM021800 27006KT P6SM SCT050 SCT150 PROB30 0219/0223 VRB15G30KT
      5SM TSRA BKN045CB
     FM030100 VRB03KT P6SM FEW050 BKN120=

USA.gov is the U.S. government's official web portal to all federal, state and local government web resources and services.